Regional Weather Roundup
Issued by NWS Wakefield, VA

Home | Current Version | Previous Version | Text Only | Print | Product List | Glossary On
Versions: 1 2 3 4 5 6 7 8 9 10 11 12 13 14 15 16 17 18 19 20 21 22 23 24 25 26 27 28 29 30 31 32 33 34 35 36 37 38 39 40 41 42 43 44 45 46 47 48 49 50
000
ASUS41 KAKQ 050515
RWRAKQ

REGIONAL WEATHER ROUNDUP
NATIONAL WEATHER SERVICE WAKEFIELD VA
1200 AM EST MON DEC 05 2016

Note: "fair" indicates few or no clouds below 12,000 feet with no
significant weather and/or obstructions to visibility. * = Denotes
station may not report precipitation (e.g., rain,snow,etc.),
thunder or fog.

VAZ042-051-052>054-056-050600-
NORTHERN VIRGINIA

CITY           SKY/WX    TMP DP  RH WIND       PRES   REMARKS
WASH NATIONAL  LGT RAIN  41  39  93 S10       30.08F FOG
DULLES         LGT RAIN  38  36  92 S8        30.06F FOG
FORT BELVOIR   LGT RAIN  39  37  92 SE7       30.07F
QUANTICO       LGT RAIN  41  37  86 S18       30.09F
FREDERICKSBRG* LGT RAIN  39  39 100 SE6       30.07F
STAFFORD*      DRIZZLE   37  37 100 S5        30.11F
WARRENTON      DRIZZLE   38  35  85 S6        30.05F
CULPEPER*      DRIZZLE   38  38  99 CALM      30.07F
MANASSAS*      CLOUDY    37  37 100 S9        30.07F
LEESBURG*      RAIN      39  39 100 MISG      30.05F
WINCHESTER     DRIZZLE   36  34  93 S8        29.99F
FRONT ROYAL*   CLOUDY    36  36 100 SW5       29.99F
LURAY*         LGT RAIN  37  37 100 SW12      29.99F
$$

VAZ048-049-060>072-079>083-050600-
CENTRAL AND SOUTH CENTRAL VIRGINIA

CITY           SKY/WX    TMP DP  RH WIND       PRES   REMARKS
RICHMOND       LGT RAIN  39  38  96 SE5       30.09F FOG
CHESTERFIELD*  CLOUDY    39  25  56 SE3       30.10F
PETERSBURG*    LGT RAIN  39  38  95 SE3       30.10F
HANOVER        RAIN      39  37  92 VRB3      30.11F FOG
TAPPAHANNOCK*  DRIZZLE   41  40  97 SE3       30.12F
QUINTON*       CLOUDY    39  39 100 CALM      30.10F FOG
CHARLOTTSVILLE LGT RAIN  39  36  89 S6        30.05F FOG
GORDONSVILLE*  CLOUDY    37  37  99 S3        30.05F FOG
ORANGE*        LGT RAIN  37  37 100 SE7       30.07F
LOUISA*        DRIZZLE   41  39  93 S3        30.05F
BUMPASS*       CLOUDY    38  38 100 CALM      30.07F
FARMVILLE*     HVY RAIN  40  40 100 CALM      30.07F
CREWE*         CLOUDY    39  39 100 CALM      30.08F
FORT PICKETT*  CLOUDY    39  36  87 CALM      30.08F
CHASE CITY*    CLOUDY    40  38  95 CALM      30.08F
CLARKSVILLE*   CLOUDY    39  39 100 CALM      30.08F
SOUTH HILL*    CLOUDY    40  40 100 CALM      30.14F
LAWRENCEVILLE* CLOUDY    40  40  97 SE3       30.09S
EMPORIA*       DRIZZLE   41  41 100 SE3       30.11F
$$

VAZ088>098-050600-
SOUTHEAST VIRGINIA

CITY           SKY/WX    TMP DP  RH WIND       PRES   REMARKS
NORFOLK        LGT RAIN  45  41  86 E3        30.12F FOG
VIRGINIA BEACH LGT RAIN  44  40  85 E3        30.11F FOG
NORFOLK NAVAL  LGT RAIN  44  42  93 E6        30.12F FOG
WEST POINT*    CLOUDY    41  39  93 SE5       30.12F
SALUDA*        CLOUDY    41  41  98 CALM      30.11F
NEWPORT NEWS   LGT RAIN  44  42  93 SE5       30.11F FOG
LANGLEY AFB    CLOUDY    45  41  87 SE6       30.10F FOG
FORT EUSTIS    LGT RAIN  43  41  91 SE7       30.08F FOG
WILLIAMSBURG*  CLOUDY    45  43  93 CALM      30.11F
HR EXEC AP*    CLOUDY    43  39  87 E6        30.10F
FRANKLIN*      DRIZZLE   41  40  96 E6        30.10F
US460-WAKEFLD  RAIN      41  40  96 E6        30.09F FOG
$$

VAZ020-022-025-037-045-050600-
WEST CENTRAL AND SOUTHWEST VIRGINIA

CITY           SKY/WX    TMP DP  RH WIND       PRES   REMARKS
STAUNTON*      DRIZZLE   35  34  97 S8        30.02F
WAYNESBORO*    CLOUDY    35  34  96 CALM      30.00F
HOT SPRINGS VA LGT RAIN  37  37 100 SW17G23   29.91F
LYNCHBURG      LGT RAIN  37  37 100 CALM      30.08F FOG
DANVILLE       LGT RAIN  40  40 100 CALM      30.08F FOG
SOUTH BOSTON*  CLOUDY    40  39  95 CALM      30.09F
MARTINSVILLE   DRIZZLE   38  37  97 CALM      30.09F
ROANOKE        LGT RAIN  37  36  96 S5        30.07F FOG
BLACKSBURG     DRIZZLE   36  36 100 E5        30.05S
DUBLIN*        MIX PCPN  38  38 100 E3        30.02F
MARION*        DRIZZLE   38  37  96 CALM      30.02S
HILLSVILLE*    MIX PCPN  38  38 100 S6        30.00R
RICHLANDS*     FOG       44  44 100 W5        29.98S VSB 1/4
WISE*          LGT RAIN  45  45 100 SW13      29.99R
ABINGDON*      LGT RAIN  45  45  99 CALM      30.00F
$$

MDZ021>025-VAZ099-100-050600-
SOUTHERN MARYLAND AND THE DELMARVA PENINSULA

CITY           SKY/WX    TMP DP  RH WIND       PRES   REMARKS
PATUXENT RIVER LGT RAIN  41  36  82 S3        30.12F
BAY BRIDGE APT LGT RAIN  41  39  93 S8        30.11F FOG
LEONARDTOWN    CLOUDY    39  36  87 CALM      30.12F
DOVER          MOCLDY    42  35  78 S7        30.11F
GEORGETOWN     LGT RAIN  40  36  86 S6        30.13F
EASTON         LGT RAIN  41  37  86 S6        30.16R
CAMBRIDGE      CLOUDY    39  37  93 SE3       30.13R
SALISBURY      LGT RAIN  40  38  93 S3        30.13F
OCEAN CITY     LGT RAIN  40  37  89 CALM      30.14F
WALLOPS ISLAND LGT RAIN  42  39  89 CALM      30.14F
ACCOMACK*      LGT RAIN  42  39  88 SE5       30.13F
$$

NCZ012>017-030>032-050600-
NORTH CENTRAL AND EASTERN NORTH CAROLINA

CITY           SKY/WX    TMP DP  RH WIND       PRES   REMARKS
ROANOKE RAPIDS RAIN      43  43 100 CALM      30.09F
RALEIGH        LGT RAIN  42  41  96 SE3       30.08F FOG
ELIZABETH CITY LGT RAIN  46  43  89 E9        30.11F
AHOSKIE*       RAIN      42  41  97 CALM      30.10F
EDENTON*       DRIZZLE   47  43  87 SE5       30.12S
CURRITUCK*     DRIZZLE   46  46 100 CALM      30.13F
KILL DEVIL HLS DRIZZLE   47  46  94 E3        30.11F
MANTEO         DRIZZLE   47  45  91 E5        30.12F
CAPE HATTERAS  LGT RAIN  51  48  89 E6        30.09F FOG
TARBORO*       NOT AVBL
GOLDSBORO      MIX PCPN  45  45 100 E3        30.05F
WASHINGTON     DRIZZLE   45  44  95 E6        30.09F
GREENVILLE     DRIZZLE   45  45 100 CALM      30.10F
NEW BERN       LGT RAIN  47  45  93 E6        30.08F
WILMINGTON     RAIN      53  53 100 W5        30.03F FOG
$$

VAZ048-050600-
ELSEWHERE

CITY           SKY/WX    TMP DP  RH WIND       PRES   REMARKS
HARRISBURG PA  CLOUDY    41  34  76 S12       30.02F
BALTIMORE      LGT RAIN  39  38  96 SE5       30.09F
ANNAPOLIS      LGT RAIN  42  36  79 S9G18     30.10F
ANDREWS AFB    LGT RAIN  39  36  91 S9        30.06F
PHILADELPHIA   CLOUDY    44  31  60 S9        30.12F
HENDERSON NC   RAIN      38  37  97 CALM      30.07F
GREENSBORO     LGT RAIN  41  41 100 SW3       30.05F FOG
ROCKY MOUNT    LGT RAIN  43  43 100 CALM      30.08F FOG
$$

VAZ100-050600-
MARINE

STATION/POSITION TIME  TEMP    WIND        PRES    WAVE   SWELL
                       AIR SEA DIR/SP/G            HT/PER HT/PER
                 (UTC) (F)     (DEG/KT/KT) (MB)    (FT/S) (FT/S)
BRANDYWINE LGT   0448   44     220/ 12/ 14   N/A
CAPE MAY NJ      0448   45 48  220/  8/ 10 1020.0F
LEWES DE         0448   43 49  200/  1/  3 1020.2F
OCEAN-CITY-INLET 0448   43 50  220/  2/  2 1020.6F
WACHAPREAGUE VA  0448   43 48   50/  1/  1 1020.3F
THOMAS POINT MD  0500   42 49  180/ 16/ 18   N/A
GOOSES REEF MD   0450   43     200/ 12/ 16 1020.7F
COVE POINT MD    0448   41     210/  7/  9 1020.6F
SOLOMONS ISLAND  0448   42 51  180/  5/  6   N/A
BISHOPS HEAD MD  0448   44 44  170/ 11/ 12 1020.1F
PINEY POINT MD   0448          180/  9/  9   N/A
POTOMAC MD       0450   44     190/  8/ 10 1019.0F
CAMBRIDGE MD     0448   41 47  140/  2/  4 1019.7F
LEWISETTA VA     0448   42 48  170/  5/  6 1019.4F
RAPPAHANNOCK LGT 0448          120/  8/  9 1020.4F
STINGRAY PT      0450   45     160/ 10/ 14 1020.2F
YORK RVR RNG VA  0448   45     160/ 11/ 13 1019.4F
YORKTOWN VA      0448   44 52  150/  5/  8 1019.4F
JAMESTOWN VA     0450   44     130/ 10/ 12   N/A
DOMINION TERM VA 0448   45     130/ 10/ 13 1019.7F
KIPTOPEKE VA     0448      51  130/  4/  6   N/A
CHES BAY BRIDGE  0448   46 54  140/  6/  9 1020.0F
CAPE HENRY VA    0448   45     130/  5/  7   N/A
WILLOUBY STN VA  0448   44     110/  7/  9 1020.7F
S CRANEY ISL VA  0448   45     120/  6/  9 1019.7F
CAPE HENRY BUOY  0442      56                N/A     2/ 6
1ST LANDING BUOY 0450   47                 1020.4F
CAPE CHARLES BUO 0456      55                N/A     2/ 6
OFFSHORE WE BUOY 0451      56                N/A     3/ 7
64NM E OF VA BCH 0450   51 60  140/  4/  4 1020.2F   3/ 7   3/ 7
DUCK PIER NC     0448   49 55  110/ 10/ 12 1019.3F
44100 DUCK FRF   0435      56                N/A     3/ 5
OREGON INLET NC  0442   51 54   70/  6/  9 1019.6F
HATTERAS NC      0448   51 58   50/  6/  8 1018.5F
DIAMOND SHLS NC  0450   62 74  150/ 14/ 17 1018.8F   3/ 8   2/ 8
CAPE LOOKOUT NC  0400   59     100/ 13/ 15 1018.5F
$$



USA.gov is the U.S. government's official web portal to all federal, state and local government web resources and services.